TimeAKDT,TemperatureF,Dew PointF,Humidity,Sea Level PressureIn,VisibilityMPH,Wind Direction,Wind SpeedMPH,Gust SpeedMPH,PrecipitationIn,Events,Conditions,WindDirDegrees,DateUTC
12:05 AM,26.1,25.0,96,29.83,1.5,Calm,Calm,-,0.00,Snow,Light Snow,0,2013-03-19 08:05:00
12:26 AM,26.1,24.1,92,29.83,0.8,Calm,Calm,-,0.02,Snow,Light Snow,0,2013-03-19 08:26:00
12:53 AM,26.1,24.1,92,29.82,0.8,Calm,Calm,-,0.04,Snow,Light Snow,0,2013-03-19 08:53:00
1:17 AM,26.1,25.0,96,29.81,1.5,Calm,Calm,-,0.01,Snow,Light Snow,0,2013-03-19 09:17:00
1:53 AM,26.1,24.1,92,29.81,3.0,East,3.5,-,0.01,Snow,Light Snow,100,2013-03-19 09:53:00
2:32 AM,26.1,24.1,92,29.79,2.0,Calm,Calm,-,0.01,Snow,Light Snow,0,2013-03-19 10:32:00
2:53 AM,26.1,24.1,92,29.78,1.2,Calm,Calm,-,0.01,Snow,Light Snow,0,2013-03-19 10:53:00
3:53 AM,26.1,24.1,92,29.77,1.5,West,3.5,-,0.03,Snow,Light Snow,260,2013-03-19 11:53:00
4:19 AM,25.0,24.1,96,29.76,3.0,West,3.5,-,0.00,Snow,Light Snow,270,2013-03-19 12:19:00
4:53 AM,26.1,24.1,92,29.75,2.0,Calm,Calm,-,0.00,Snow,Light Snow,0,2013-03-19 12:53:00
5:05 AM,26.1,24.1,92,29.74,3.0,Calm,Calm,-,0.00,Snow,Light Snow,0,2013-03-19 13:05:00
5:53 AM,25.0,24.1,96,29.73,4.0,West,3.5,-,0.00,Snow,Light Snow,280,2013-03-19 13:53:00
6:53 AM,25.0,24.1,96,29.72,6.0,Calm,Calm,-,0.00,,Overcast,0,2013-03-19 14:53:00
7:15 AM,26.1,25.0,96,29.71,2.0,Calm,Calm,-,0.00,Snow,Light Snow,0,2013-03-19 15:15:00
7:30 AM,26.1,24.1,92,29.71,0.8,Calm,Calm,-,0.01,Snow,Light Snow,0,2013-03-19 15:30:00
7:36 AM,26.1,24.1,92,29.71,0.2,Calm,Calm,-,0.01,Fog-Snow,Heavy Snow,0,2013-03-19 15:36:00
7:47 AM,26.6,24.8,93,29.70,0.5,ESE,3.5,-,0.03,Fog-Snow,Snow,110,2013-03-19 15:47:00
7:53 AM,26.1,25.0,96,29.70,0.5,ESE,3.5,-,0.05,Fog-Snow,Snow,110,2013-03-19 15:53:00
8:06 AM,26.1,25.0,96,29.70,0.8,Calm,Calm,-,0.00,Snow,Light Snow,0,2013-03-19 16:06:00
8:21 AM,26.1,25.0,96,29.70,2.5,Calm,Calm,-,0.01,Snow,Light Snow,0,2013-03-19 16:21:00
8:31 AM,26.1,25.0,96,29.70,8.0,Calm,Calm,-,0.01,,Overcast,0,2013-03-19 16:31:00
8:53 AM,26.1,24.1,92,29.70,5.0,Calm,Calm,-,0.01,Snow,Light Snow,0,2013-03-19 16:53:00
9:08 AM,27.0,25.0,92,29.70,5.0,Calm,Calm,-,0.00,Snow,Light Snow,0,2013-03-19 17:08:00
9:37 AM,27.0,25.0,92,29.70,8.0,Calm,Calm,-,0.00,Snow,Light Snow,0,2013-03-19 17:37:00
9:53 AM,27.0,24.1,89,29.70,9.0,West,3.5,-,0.00,Snow,Light Snow,280,2013-03-19 17:53:00
10:21 AM,28.0,25.0,88,29.69,10.0,Calm,Calm,-,0.00,,Overcast,0,2013-03-19 18:21:00
10:38 AM,28.0,25.0,88,29.70,1.8,Calm,Calm,-,0.00,Snow,Light Snow,0,2013-03-19 18:38:00
10:41 AM,28.9,25.0,85,29.70,3.0,Calm,Calm,-,0.00,Snow,Light Snow,0,2013-03-19 18:41:00
10:53 AM,28.9,25.0,85,29.70,3.0,Calm,Calm,-,0.01,Snow,Light Snow,0,2013-03-19 18:53:00
11:31 AM,28.9,25.0,85,29.69,10.0,WSW,4.6,-,0.00,,Overcast,240,2013-03-19 19:31:00
11:53 AM,28.9,25.0,85,29.68,8.0,WSW,4.6,-,0.00,,Overcast,240,2013-03-19 19:53:00
12:53 PM,28.9,25.0,85,29.68,3.0,WSW,5.8,-,0.00,Snow,Light Snow,250,2013-03-19 20:53:00
1:38 PM,28.9,25.0,85,29.67,1.8,SW,4.6,-,0.00,Snow,Light Snow,230,2013-03-19 21:38:00
1:53 PM,28.0,26.1,92,29.67,1.2,SSW,3.5,-,0.00,Snow,Light Snow,210,2013-03-19 21:53:00
2:20 PM,28.0,26.1,92,29.67,0.5,WSW,3.5,-,0.01,Snow,Light Snow,250,2013-03-19 22:20:00
2:31 PM,28.0,26.1,92,29.67,0.5,WSW,4.6,-,0.02,Fog-Snow,Snow,250,2013-03-19 22:31:00
2:53 PM,28.0,27.0,96,29.67,0.5,West,4.6,-,0.04,Fog-Snow,Snow,260,2013-03-19 22:53:00
3:53 PM,28.0,26.1,92,29.67,0.5,WSW,4.6,-,0.02,Snow,Light Snow,250,2013-03-19 23:53:00
4:21 PM,28.0,26.1,92,29.66,1.0,West,3.5,-,0.01,Snow,Light Snow,260,2013-03-20 00:21:00
4:53 PM,28.0,26.1,92,29.66,2.0,WSW,4.6,-,0.01,Snow,Light Snow,250,2013-03-20 00:53:00
5:00 PM,28.0,26.1,92,29.66,3.0,WSW,3.5,-,0.00,,Overcast,240,2013-03-20 01:00:00
5:53 PM,28.0,25.0,88,29.65,7.0,Calm,Calm,-,0.00,,Overcast,0,2013-03-20 01:53:00
6:53 PM,25.0,24.1,96,29.65,10.0,East,3.5,-,0.00,,Mostly Cloudy,90,2013-03-20 02:53:00
7:53 PM,21.9,21.0,96,29.65,10.0,Calm,Calm,-,N/A,,Scattered Clouds,0,2013-03-20 03:53:00
8:53 PM,19.0,18.0,96,29.65,10.0,Calm,Calm,-,N/A,,Scattered Clouds,0,2013-03-20 04:53:00
9:53 PM,16.0,15.1,96,29.65,10.0,Calm,Calm,-,N/A,,Scattered Clouds,0,2013-03-20 05:53:00
10:53 PM,18.0,17.1,96,29.65,10.0,Calm,Calm,-,N/A,,Scattered Clouds,0,2013-03-20 06:53:00
11:53 PM,16.0,12.9,88,29.65,6.0,Calm,Calm,-,N/A,,Scattered Clouds,0,2013-03-20 07:53:00